Madison, MN

10:39 AM CDT on May 23, 2018 (GMT -0500)
Madison-Lac Qui Parle County

Weather History for KDXX - May, 2014

Change the Weather History Date:

Tuesday, May 6, 2014

  Actual Average (KAQP) Record (KAQP)
Temperature  
Mean Temperature 60 °F -  
Max Temperature 69 °F 63 °F 93 °F (2016)
Min Temperature 50 °F 40 °F 33 °F (1997)
Degree Days  
Heating Degree Days 6    
Growing Degree Days 10 (Base 50)    
Moisture  
Dew Point 38 °F    
Average Humidity 45    
Maximum Humidity 71    
Minimum Humidity 31    
Precipitation  
Precipitation 0.00 in - - ()
Sea Level Pressure  
Sea Level Pressure 29.78 in    
Wind  
Wind Speed 14 mph (ESE)    
Max Wind Speed 30 mph    
Max Gust Speed 39 mph    
Visibility 10 miles    
Events      
Averages and records for this station are not official NWS values.
T = Trace of Precipitation, MM = Missing Value Source: NWS Daily Summary

Daily Weather History Graph

Daily Weather History Graph

Search for Another Location

Airport or City:

Astronomy

May. 06, 2014 Rise Set
Actual Time 6:06 AM CDT 8:36 PM CDT
Civil Twilight 5:33 AM CDT 9:09 PM CDT
Nautical Twilight 4:52 AM CDT 9:51 PM CDT
Astronomical Twilight 4:05 AM CDT 10:38 PM CDT
Moon 12:27 PM CDT (5/6) 1:53 AM CDT (5/6)
Length of Visible Light 15h 35m
Length of Day
14h 29m
Waxing Crescent, 46% of the Moon is Illuminated
May 6
Waxing Crescent
May 6
First Quarter
May 14
Full
May 21
Last Quarter
May 28
New

Hourly Weather History & Observations

Time (CDT) Temp. Dew Point Humidity Pressure Visibility Wind Dir Wind Speed Gust Speed Precip Events Conditions
12:14 AM 51.8 °F 39.2 °F 62% 29.90 in 10.0 mi ESE 8.1 mph - N/A   Clear
12:33 AM 51.8 °F 39.2 °F 62% 29.90 in 10.0 mi East 8.1 mph - N/A   Clear
12:54 AM 50.0 °F 39.2 °F 66% 29.89 in 10.0 mi East 8.1 mph - N/A   Clear
1:14 AM 50.0 °F 39.2 °F 66% 29.89 in 10.0 mi ESE 9.2 mph - N/A   Clear
1:33 AM 50.0 °F 39.2 °F 66% 29.89 in 10.0 mi ESE 9.2 mph - N/A   Clear
1:53 AM 50.0 °F 39.2 °F 66% 29.87 in 10.0 mi ESE 10.4 mph - N/A   Clear
2:14 AM 51.8 °F 39.2 °F 62% 29.86 in 10.0 mi SE 10.4 mph - N/A   Clear
2:33 AM 51.8 °F 39.2 °F 62% 29.86 in 10.0 mi ESE 10.4 mph - N/A   Clear
6:54 AM 50.0 °F 39.2 °F 66% 29.91 in 10.0 mi ESE 5.8 mph - N/A   Clear
7:13 AM 50.0 °F 41.0 °F 71% 29.95 in 10.0 mi North 4.6 mph - N/A   Clear
7:33 AM 50.0 °F 41.0 °F 71% 29.94 in 10.0 mi NNE 3.5 mph - N/A   Clear
7:54 AM 50.0 °F 41.0 °F 71% 29.93 in 10.0 mi East 5.8 mph - N/A   Clear
8:13 AM 51.8 °F 39.2 °F 62% 29.91 in 10.0 mi ESE 10.4 mph - N/A   Clear
9:13 AM 53.6 °F 37.4 °F 54% 29.84 in 10.0 mi ESE 18.4 mph 27.6 mph N/A   Clear
9:34 AM 53.6 °F 35.6 °F 51% 29.85 in 10.0 mi SE 15.0 mph - N/A   Clear
9:54 AM 55.4 °F 35.6 °F 47% 29.85 in 10.0 mi SE 21.9 mph 26.5 mph N/A   Clear
10:13 AM 57.2 °F 35.6 °F 44% 29.85 in 10.0 mi SE 19.6 mph - N/A   Clear
10:34 AM 57.2 °F 35.6 °F 44% 29.88 in 10.0 mi SSE 15.0 mph - N/A   Clear
10:54 AM 57.2 °F 37.4 °F 48% 29.84 in 10.0 mi ESE 18.4 mph 23.0 mph N/A   Clear
11:13 AM 57.2 °F 37.4 °F 48% 29.79 in 10.0 mi SE 26.5 mph 31.1 mph N/A   Clear
11:34 AM 57.2 °F 37.4 °F 48% 29.78 in 10.0 mi ESE 18.4 mph 33.4 mph N/A   Clear
11:54 AM 57.2 °F 37.4 °F 48% 29.76 in 10.0 mi ESE 26.5 mph 31.1 mph N/A   Clear
12:13 PM 60.8 °F 37.4 °F 42% 29.76 in 10.0 mi SE 28.8 mph 35.7 mph N/A   Clear
12:34 PM 62.6 °F 37.4 °F 39% 29.77 in 10.0 mi ESE 29.9 mph 33.4 mph N/A   Clear
12:54 PM 64.4 °F 37.4 °F 37% 29.78 in 10.0 mi ESE 23.0 mph 31.1 mph N/A   Clear
1:13 PM 66.2 °F 37.4 °F 35% 29.77 in 10.0 mi SE 23.0 mph 27.6 mph N/A   Clear
1:34 PM 66.2 °F 37.4 °F 35% 29.73 in 10.0 mi SE 25.3 mph 34.5 mph N/A   Clear
1:54 PM 66.2 °F 37.4 °F 35% 29.70 in 10.0 mi SE 21.9 mph 39.1 mph N/A   Clear
2:13 PM 66.2 °F 37.4 °F 35% 29.72 in 10.0 mi ESE 17.3 mph 25.3 mph N/A   Clear
2:34 PM 69.8 °F 37.4 °F 31% 29.73 in 10.0 mi SSE 24.2 mph 28.8 mph N/A   Clear
2:54 PM 69.8 °F 37.4 °F 31% 29.72 in 10.0 mi SE 24.2 mph 29.9 mph N/A   Clear
3:13 PM 68.0 °F 37.4 °F 33% 29.73 in 10.0 mi SE 19.6 mph - N/A   Clear
3:54 PM 69.8 °F 39.2 °F 33% 29.70 in 10.0 mi ESE 17.3 mph 28.8 mph N/A   Clear
4:13 PM 69.8 °F 39.2 °F 33% 29.71 in 10.0 mi SE 21.9 mph - N/A   Clear
4:34 PM 69.8 °F 39.2 °F 33% 29.72 in 10.0 mi SE 19.6 mph 25.3 mph N/A   Clear
4:54 PM 69.8 °F 39.2 °F 33% 29.72 in 10.0 mi SE 21.9 mph 27.6 mph N/A   Scattered Clouds
5:13 PM 69.8 °F 37.4 °F 31% 29.72 in 10.0 mi SE 18.4 mph - N/A   Mostly Cloudy
5:34 PM 69.8 °F 37.4 °F 31% 29.72 in 10.0 mi ESE 16.1 mph 23.0 mph N/A   Scattered Clouds
5:54 PM 68.0 °F 37.4 °F 33% 29.71 in 10.0 mi ESE 18.4 mph - N/A   Scattered Clouds
6:13 PM 68.0 °F 37.4 °F 33% 29.71 in 10.0 mi ESE 17.3 mph 25.3 mph N/A   Scattered Clouds
6:34 PM 68.0 °F 37.4 °F 33% 29.72 in 10.0 mi ESE 18.4 mph - N/A   Mostly Cloudy
6:54 PM 66.2 °F 37.4 °F 35% 29.72 in 10.0 mi ESE 17.3 mph 24.2 mph N/A   Overcast
7:13 PM 66.2 °F 37.4 °F 35% 29.72 in 10.0 mi ESE 15.0 mph 20.7 mph N/A   Mostly Cloudy
7:34 PM 66.2 °F 37.4 °F 35% 29.73 in 10.0 mi ESE 12.7 mph - N/A   Mostly Cloudy
7:54 PM 64.4 °F 37.4 °F 37% 29.73 in 10.0 mi East 13.8 mph - N/A   Mostly Cloudy
8:13 PM 64.4 °F 37.4 °F 37% 29.73 in 10.0 mi East 17.3 mph - N/A   Mostly Cloudy
8:34 PM 64.4 °F 37.4 °F 37% 29.73 in 10.0 mi East 13.8 mph - N/A   Overcast
8:54 PM 62.6 °F 37.4 °F 39% 29.72 in 10.0 mi East 16.1 mph - N/A   Overcast
9:13 PM 62.6 °F 39.2 °F 42% 29.73 in 10.0 mi East 16.1 mph - N/A   Overcast
9:34 PM 62.6 °F 39.2 °F 42% 29.73 in 10.0 mi East 16.1 mph - N/A   Overcast
9:53 PM 62.6 °F 39.2 °F 42% 29.73 in 10.0 mi East 15.0 mph - N/A   Overcast
10:14 PM 62.6 °F 39.2 °F 42% 29.72 in 10.0 mi East 13.8 mph - N/A   Overcast
10:34 PM 62.6 °F 39.2 °F 42% 29.71 in 10.0 mi East 17.3 mph 24.2 mph N/A   Overcast
10:53 PM 62.6 °F 39.2 °F 42% 29.72 in 10.0 mi East 18.4 mph - N/A   Overcast
11:14 PM 62.6 °F 39.2 °F 42% 29.72 in 10.0 mi East 18.4 mph 25.3 mph N/A   Overcast
11:34 PM 62.6 °F 39.2 °F 42% 29.72 in 10.0 mi East 20.7 mph - N/A   Overcast
11:53 PM 62.6 °F 39.2 °F 42% 29.73 in 10.0 mi East 15.0 mph 21.9 mph N/A   Overcast